Regional Weather Roundup
Issued by NWS

Home | Current Version | Previous Version | Graphics & Text | Print | Product List | Glossary On
Versions: 1 2 3 4 5 6 7 8 9 10 11 12 13 14 15 16 17 18 19 20 21 22 23 24 25 26 27 28 29 30 31 32 33 34 35 36 37 38 39 40 41 42 43 44 45 46 47 48 49 50
000
ASUS43 KMPX 241510
RWRMN
WEATHER ROUNDUP FOR MINNESOTA
NATIONAL WEATHER SERVICE TWIN CITIES/CHANHASSEN MN
900 AM CST MON NOV 24 2014


NOTE: "FAIR" INDICATES FEW OR NO CLOUDS BELOW 12,000 FEET WITH NO
SIGNIFICANT WEATHER AND/OR OBSTRUCTIONS TO VISIBILITY. N/A MEANS
CURRENT SKY AND/OR WEATHER CONDITIONS ARE NOT AVAILABLE.

MNZ060>063-068>070-241600-
   Twin Cities Metro

CITY           SKY/WX    TMP DP  RH WIND       PRES   REMARKS
TWIN CITIES    CLOUDY    22  18  85 NW17      29.41R WCI   8
ST PAUL        CLOUDY    24  19  81 NW18G24   29.41R WCI  10
CRYSTAL        CLOUDY    24  18  77 NW17      29.40R WCI  11
BLAINE         CLOUDY    25  21  86 W18G24    29.39R WCI  11
LAKEVILLE      CLOUDY    21  18  86 W17G24    29.39R WCI   7
EDEN PRAIRIE   CLOUDY    22  17  81 W15       29.41R WCI   9
SOUTH ST PAUL  CLOUDY    25  20  83 NW16G24   29.39R WCI  12
LAKE ELMO      CLOUDY    27  23  86 NW16      29.38R WCI  14
$$
MNZ001>005-007-008-013>017-022>024-027-028-241600-
   Northwest Minnesota

CITY           SKY/WX    TMP DP  RH WIND       PRES   REMARKS
BEMIDJI        LGT SNOW  12   8  85 NW17G23   29.53R WCI  -5
HALLOCK        MOCLDY     5   0  78 N26G36    29.75R WCI -18
ROSEAU         FLURRIES  10   5  79 N18       29.65R WCI  -8
WARROAD        LGT SNOW  10   7  85 NW13      29.63R WCI  -5
THIEF RVR FALL CLOUDY     9   3  78 NW18      29.66R WCI -10
CROOKSTON      CLOUDY     7   3  85 N26G35    29.71R WCI -16
FOSSTON        LGT SNOW   7   3  85 NW17G25   29.62R WCI -12
DETROIT LAKES  LGT SNOW  10   9  92 NW23G29   29.60R WCI -10
MOORHEAD       CLOUDY     9   7  92 NW23G32   29.70R WCI -12
PARK RAPIDS    LGT SNOW  12   7  80 NW20G31   29.51R WCI  -6
MAHNOMEN       LGT SNOW   9   5  85 NW22      29.61R WCI -11
$$
MNZ006-009>011-018-025>026-241600-
   North Central Minnesota

CITY           SKY/WX    TMP DP  RH WIND       PRES   REMARKS
BAUDETTE       LGT SNOW  12   8  84 NW22G28   29.56R FOG     WCI  -7
FLAG ISLAND    LGT SNOW  10   5  79 N22G30    29.61R WCI  -9
INTL FALLS     FLURRIES  18  13  80 N16       29.48R WCI   3
WASKISH        LGT SNOW  14  12  92 NW7       29.55R WCI   4
BIG FORK       CLOUDY    19  16  86 NW8G18    29.44R WCI   9
LONGVILLE      LGT SNOW  16  12  86 NW7G22    29.46R VSB 1   WCI   6
GRAND RAPIDS   CLOUDY    19  16  86 NW24G31   29.39R WCI   2
CRANE LAKE     CLOUDY    21  19  93 N13G20    29.42R WCI   9
ORR            CLOUDY    21  18  86 NW10G20   29.37R WCI  10
COOK           CLOUDY    23  21  93 NW13G21   29.37R WCI  11
WALKER         LGT SNOW  13  10  84 NW9G17    29.49R WCI   1
$$
MNZ012-019>021-037-241600-
   Northeast Minnesota

CITY           SKY/WX    TMP DP  RH WIND       PRES   REMARKS
DULUTH         LGT SNOW  31  27  85 NW21G26   29.25R VSB 3/4 WCI  18
ELY            LGT SNOW  25  21  86 N12G22    29.31R WCI  14
HIBBING        LGT SNOW  26  21  81 N23G30    29.34R WCI  11
EVELETH        CLOUDY    28  25  86 NW13G18   29.33R WCI  18
DULUTH HARBOR  MIX PCPN  34  30  86 NW7       29.29S WCI  28
TWO HARBORS    LGT SNOW  36  28  75 NW13G23   29.21R
SILVER BAY     CLOUDY    34  27  75 NW14G24   29.21R HAZE    WCI  24
GRAND MARAIS     N/A     27  21  78 N26G44    29.14R WCI  12
G MARAIS ARPRT LGT SNOW  19  16  86 NW17G26   29.17R WCI   4
$$
MNZ029>031-032-039>041-046>048-054>057-064-241600-
   West Central Minnesota

CITY           SKY/WX    TMP DP  RH WIND       PRES   REMARKS
FERGUS FALLS   CLOUDY     9   3  78 NW26G38   29.65R HAZE    WCI -13
WHEATON        LGT SNOW  10   7  85 NW23G31   29.68R WCI -10
MORRIS         LGT SNOW  12   9  85 NW31G38   29.59R VSB 1   WCI -10
ALEXANDRIA     CLOUDY    13   7  77 NW25G36   29.53R WCI  -7
ELBOW LAKE     SNOW      10   7  87 NW29G36   29.60R VSB 1/2 WCI -12
WADENA         FLURRIES  10   7  85 NW18G26   29.52R WCI  -8
GLENWOOD       CLOUDY    12   9  85 NW24G33   29.53R WCI  -8
APPLETON       PTSUNNY   16   9  73 NW30G37   29.62R HAZE    WCI  -4
BENSON         LGT SNOW  12   9  85 N26G37    29.57R WCI  -8
ORTONVILLE     SNOW      12   7  79 NW24G32   29.64R VSB 1/2 WCI  -8
MADISON        LGT SNOW  18  10  73 NW29G40   29.63R WCI  -2
WILLMAR        LGT SNOW  16  10  79 NW25G37   29.54R WCI  -3
$$
MNZ033>034-036-042>043-049>051-058-059-241600-
   Central Minnesota

CITY           SKY/WX    TMP DP  RH WIND       PRES   REMARKS
ST CLOUD       CLOUDY    20  12  71 NW21G31   29.44R WCI   4
SAUK CENTRE    LGT SNOW  13   9  83 NW22G31   29.50R VSB 3/4 WCI  -5
PAYNESVILLE    FLURRIES  14  10  84 W17G24    29.50R WCI  -3
AITKIN         CLOUDY    21  16  79 NW10G22   29.40R WCI  10
PINE RIVER     FLURRIES  16  12  86 NW14G23   29.51R WCI   1
BRAINERD       CLOUDY    17  13  84 NW18      29.46R WCI   1
STAPLES        FLURRIES  14  10  85 NW17      29.49R WCI  -3
LONG PRAIRIE   LGT SNOW  12   9  85 NW18G24   29.49R VSB 3/4 WCI  -5
LITTLE FALLS   PTSUNNY   18  12  79 NW13G26   29.47R WCI   4
LITCHFIELD     FLURRIES  18  14  86 NW18G25   29.48R WCI   2
BUFFALO        CLOUDY    20  15  78 NW16G23   29.45R WCI   6
MAPLE LAKE     CLOUDY    21  16  82 NW20G25   29.46R WCI   5
$$
MNZ037-044-045-052-053-241600-
   East Central Minnesota

CITY           SKY/WX    TMP DP  RH WIND       PRES   REMARKS
PRINCETON      CLOUDY    23  18  80 W17G25    29.41R WCI   9
MORA           CLOUDY    25  21  86 NW17G32   29.39R WCI  11
CAMBRIDGE      CLOUDY    27  18  69 NW13G18   29.37R WCI  16
RUSH CITY      CLOUDY    25  22  89 NW15G21   29.37R WCI  13
MOOSE LAKE     CLOUDY    27  23  86 NW13G22   29.31S WCI  16
HINCKLEY       CLOUDY    27  23  86 NW17G25   29.34R FOG     WCI  14
CLOQUET        CLOUDY    28  27  93 NW23G29   29.28S WCI  14
MCGREGOR       CLOUDY    23  21  93 NW10G23   29.38R WCI  12
$$
MNZ071>073-080-081-089-090-097-098-241600-
   Southwest Minnesota

CITY           SKY/WX    TMP DP  RH WIND       PRES   REMARKS
MONTEVIDEO     LGT SNOW  14  10  85 N22G33    29.60R WCI  -4
GRANITE FALLS  LGT SNOW  15  10  82 NW24G30   29.61R WCI  -4
CANBY          FLURRIES  16  11  80 NW20G28   29.64R WCI  -1
MARSHALL       CLOUDY    16   7  67 NW31G37   29.59R WCI  -5
REDWOOD FALLS  LGT SNOW  17  10  74 NW21G30   29.55R WCI   0
OLIVIA         LGT SNOW  18  12  79 NW24G36   29.53R WCI   0
PIPESTONE      LGT SNOW  18  12  79 NW23G33   29.59R WCI   0
WINDOM         FLURRIES  16  10  79 NW32G38   29.52R WCI  -5
WORTHINGTON    CLOUDY    18  10  73 NW26G33   29.56R WCI  -1
JACKSON        CLOUDY    19  12  73 NW30G38   29.52R WCI   0
TRACY          CLOUDY    17  11  79 NW29G36   29.58R WCI  -3
SLAYTON        CLOUDY    17  11  79 NW28G35   29.56R WCI  -3
$$
MNZ065>067-074>077-082>085-091>093-241600-
   South Central Minnesota

CITY           SKY/WX    TMP DP  RH WIND       PRES   REMARKS
MANKATO        CLOUDY    18  10  73 NW22G30   29.47R WCI   0
NEW ULM        LGT SNOW  18  12  79 NW24G36   29.51R WCI   0
ST JAMES       LGT SNOW  18  12  79 W31G39    29.52R WCI  -2
FAIRMONT       CLOUDY    18   9  68 NW29G36   29.50R WCI  -2
GLENCOE        PTSUNNY   21  16  81 NW18G29   29.46R WCI   6
FARIBAULT      CLOUDY    21  18  86 W16G25    29.42R WCI   7
OWATONNA       CLOUDY    21  18  86 W16G23    29.42R WCI   7
WASECA         CLOUDY    19  14  79 W22G32    29.45R WCI   3
ALBERT LEA     CLOUDY    19  18  93 NW22G29   29.41R WCI   3
$$
MNZ078>079-086>088-094>096-241600-
   Southeast Minnesota

CITY           SKY/WX    TMP DP  RH WIND       PRES   REMARKS
ROCHESTER      MIX PCPN  23  21  92 NW28G33   29.33R FOG     WCI   6
RED WING       FLURRIES  27  23  86 NW18G25   29.35R WCI  13
STANTON        CLOUDY    24  20  84 W21       29.38R WCI  10
DODGE CENTER   CLOUDY    21  21 100 NW22G28   29.36R FOG     WCI   5
WINONA         LGT SNOW  30  28  93 NW16G25   29.30R VSB 1   WCI  19
AUSTIN         CLOUDY    19  18  93 NW23G33   29.38R WCI   2
PRESTON        CLOUDY    23  21  91 NW18G32   29.32R FOG     WCI   9
$$
ABBREVIATIONS USED IN REMARKS
   TC - TEMPERATURES IN CELSIUS
  WCI - WIND CHILL INDEX
   HX - HEAT INDEX
  VSB - VISIBILITY
$$



USA.gov is the U.S. government's official web portal to all federal, state and local government web resources and services.